This is the latest recevied weather packets stored in our database for station/object NI4CE-10. If no packets are shown the sender has not sent any weather packets the latest 10 day(s).
| Time | Temp. | Humidity | Pressure | Rain* | Wind** | Luminosity | Snow |
|---|---|---|---|---|---|---|---|
| 1777558742 | 25.56° C | 100% | 1015.9 hPa | 0 mm | - | - | - |
| 1777558578 | 26.67° C | 100% | 1015.5 hPa | 0 mm | - | - | - |
| 1777558278 | 27.22° C | 100% | 1015.7 hPa | 0 mm | - | - | - |
| 1777557978 | 26.67° C | 100% | 1015.7 hPa | 0 mm | - | - | - |
| 1777557678 | 25.56° C | 100% | 1015.7 hPa | 0 mm | - | - | - |
| 1777557378 | 25.56° C | 100% | 1015.8 hPa | 0 mm | - | - | - |
| 1777557078 | 25.56° C | 100% | 1015.9 hPa | 0 mm | - | - | - |
| 1777556778 | 25.56° C | 100% | 1015.9 hPa | 0 mm | - | - | - |
| 1777556737 | 25° C | 100% | 1016 hPa | 0 mm | - | - | - |
| 1777556478 | 25.56° C | 100% | 1015.9 hPa | 0 mm | - | - | - |
| 1777556179 | 25° C | 100% | 1015.9 hPa | 0 mm | - | - | - |
| 1777555878 | 25° C | 100% | 1016.1 hPa | 0 mm | - | - | - |
| 1777555578 | 25° C | 100% | 1016 hPa | 0 mm | - | - | - |
| 1777555503 | 22.78° C | 100% | 1016 hPa | 0 mm | - | - | - |
| 1777555278 | 23.33° C | 100% | 1016.1 hPa | 0 mm | - | - | - |
| 1777554979 | 23.33° C | 100% | 1016.1 hPa | 0 mm | - | - | - |
| 1777554679 | 22.78° C | 100% | 1016 hPa | 0 mm | - | - | - |
| 1777554532 | 22.78° C | 100% | 1016.1 hPa | 0 mm | - | - | - |
| 1777554379 | 22.78° C | 100% | 1016.1 hPa | 0 mm | - | - | - |
| 1777554079 | 22.78° C | 100% | 1016.1 hPa | 0 mm | - | - | - |
| 1777553779 | 22.22° C | 100% | 1016 hPa | 0 mm | - | - | - |
| 1777553479 | 22.22° C | 100% | 1016.1 hPa | 0 mm | - | - | - |
| 1777553179 | 22.22° C | 100% | 1015.9 hPa | 0 mm | - | - | - |
| 1777552879 | 22.22° C | 100% | 1015.7 hPa | 0 mm | - | - | - |
| 1777552579 | 21.67° C | 100% | 1015.6 hPa | 0 mm | - | - | - |
* Rain latest hour (hover to see other rain measurements)
** Current wind speed in m/s (hover to see current wind gust speed)